COSMOS 1677

Satellite information

Favourite Embed

Satellite Type and Status

PAYLOADIN ORBIT

Key statistics

Satellite COSMOS 1677 at a glance.

Uptime

14667

Days in orbit

Revolutions

≈ 13.9

Per day

Orbit

LEO

Low Earth Orbit

Inclination

64.7

Latest

Satellite identification and parameters

Extended collection of information and parameters for COSMOS 1677.

Object identification

Identified? True

Debris? False

Object name: COSMOS 1677

International designator: 1985-075A

Object number (NORAD): 15986

Object ID (CCSDS): 15986

Country: COMMONWEALTH OF INDEPENDENT STATES (CIS)

Current information (Y/N): Y

RCS size: LARGE

Orbital parameters

Period: 103.845 minutes

Inclination: 64.6829 deg

SMA: 7318.409 km

Apoapsis: 971.991 km

Periapsis: 908.557 km

RAAN: 221.0616 deg

Eccentricy: 0.00433387

Argument of periapsis: 72.4989 deg

Mean anomaly: 288.0799 deg

Mean motion: 13.86684774 rev/day

Mean motion (dot): -0.00000064 rev/day2

B* drag term: 0.000023486906 1/REarth

Two-line elements (TLE)

Creation date: Oct. 19, 2025, 2:20 a.m.

Reference frame: TEME

Reference center: EARTH

Epoch: Oct. 18, 2025, 10:41 p.m. UTC

TLE line 0: 0 COSMOS 1677

TLE line 1: 1 15986U 85075A 25291.94545432 -.00000064 00000-0 23487-4 0 9998

TLE line 2: 2 15986 64.6829 221.0616 0043339 72.4989 288.0799 13.86684774 24435

Live tracking on map

Real-time ground track for satellite COSMOS 1677.

In-orbit conjunctions

A list of the most updated potential collisions computed for object COSMOS 1677.

Target Orbit TCA Probability of collision Miss distance Type
FENGYUN 1C DEB SSO 2024-11-03 04:34:44 0.0001551439 741.0 (m) DEBRIS
METEOR 2-17 LEO 2024-10-07 02:36:47 0.0001746102 208.0 (m) PAYLOAD
CZ-4B DEB SSO 2024-09-08 16:29:23 0.0004381112 683.0 (m) DEBRIS
CZ-4C R/B SSO 2024-07-15 19:56:05 0.0005438267 48.0 (m) ROCKET BODY

Associated space launch

Active radar satellite for ocean surveillance powered by a nuclear reactor.

COSMOS 1677 was lifted into orbit during the mission ‘Tsiklon-2 | US-A 27’, on board a Tsiklon-2 space rocket.

The launch took place on Aug. 23, 1985, 10:33 p.m. from 90.

For more information about the launch, click the button.

Launch to space Tsiklon-2 | US-A 27
Tsiklon-2 | US-A 27

Agency: N/A

Status: Launch Successful

Launch date: Aug. 23, 1985, 10:33 p.m. UTC

Rocket: Tsiklon-2

Launch pad: 90

Location: Baikonur Cosmodrome, Republic of Kazakhstan

...

Latest news about this satellite

There are no fresh news available about this satellite. Check back as we update our databases every day.


Newsletter sign-up

Weekly statistics, charts and insights to help you stay on top of the space industry.